This is the latest recevied weather packets stored in our database for station/object K7PMV-13. If no packets are shown the sender has not sent any weather packets the latest 10 day(s).
| Time | Temp. | Humidity | Pressure | Rain* | Wind** | Luminosity | Snow |
|---|---|---|---|---|---|---|---|
| 1777567674 | - | - | - | - | - | - | - |
| 1777567020 | 27.22° C | 25% | 1006.5 hPa | 0 mm | - | 722 W/m² | - |
| 1777566717 | 26.67° C | 24% | 1006.4 hPa | 0 mm | - | 708 W/m² | - |
| 1777566414 | 26.11° C | 26% | 1006.4 hPa | 0 mm | - | 696 W/m² | - |
| 1777566111 | 25.56° C | 27% | 1006.5 hPa | 0 mm | - | 680 W/m² | - |
| 1777565809 | 25.56° C | 26% | 1006.5 hPa | 0 mm | - | 666 W/m² | - |
| 1777565507 | 25.56° C | 26% | 1006.5 hPa | 0 mm | - | 656 W/m² | - |
| 1777565204 | 25.56° C | 27% | 1006.5 hPa | 0 mm | - | 640 W/m² | - |
| 1777564902 | 25° C | 26% | 1006.4 hPa | 0 mm | - | 624 W/m² | - |
| 1777564599 | 25° C | 28% | 1006.5 hPa | 0 mm | - | 612 W/m² | - |
| 1777564295 | 24.44° C | 28% | 1006.5 hPa | 0 mm | - | 592 W/m² | - |
| 1777563993 | 23.89° C | 29% | 1006.5 hPa | 0 mm | - | 578 W/m² | - |
| 1777563676 | 23.89° C | 28% | 1006.6 hPa | 0 mm | - | 563 W/m² | - |
| 1777563332 | 23.33° C | 28% | 1006.7 hPa | 0 mm | - | 543 W/m² | - |
| 1777563030 | 22.78° C | 29% | 1006.8 hPa | 0 mm | - | 526 W/m² | - |
| 1777562723 | 22.78° C | 30% | 1006.8 hPa | 0 mm | - | 510 W/m² | - |
| 1777562421 | 22.22° C | 31% | 1006.9 hPa | 0 mm | - | 492 W/m² | - |
| 1777562103 | 21.11° C | 31% | 1006.9 hPa | 0 mm | - | 471 W/m² | - |
| 1777561800 | 21.11° C | 32% | 1006.9 hPa | 0 mm | - | 455 W/m² | - |
| 1777561497 | 21.11° C | 34% | 1007 hPa | 0 mm | - | 438 W/m² | - |
| 1777561088 | 20.56° C | 34% | 1007 hPa | 0 mm | - | 413 W/m² | - |
| 1777560783 | 20.56° C | 34% | 1007 hPa | 0 mm | - | 397 W/m² | - |
| 1777560480 | 20° C | 35% | 1007 hPa | 0 mm | - | 381 W/m² | - |
| 1777560177 | 19.44° C | 36% | 1007 hPa | 0 mm | - | 362 W/m² | - |
| 1777559875 | - | - | - | - | - | - | - |
* Rain since midnight (hover to see other rain measurements)
** Current wind speed in m/s (hover to see current wind gust speed)